Home   Weather   Minot   Past weeks
Flag for USA

Past Weather in Minot, North Dakota, USA — Yesterday and Last 2 Weeks

Now
51 °F

Sunny.


Feels Like: 46 °F
Forecast: 57 / 41 °F
Wind: 14 mph from West

Location: Minot International Airport

Current Time: Oct 18, 2019 at 11:49:03 am

Latest Report: Oct 18, 2019 at 10:54 am


Visibility: 10 mi

Pressure: 29.43 "Hg

Humidity: 59%

Dew Point: 37 °F

Location of MinotLocation

Past Weather in Minot — Graph

°F

Minot Temperature Yesterday

Maximum temperature yesterday: 65 °F (at 2:54 pm)
Minimum temperature yesterday: 31 °F (at 4:54 am)
Average temperature yesterday: 46 °F

High & Low Weather Summary for the Past Weeks

 TemperatureHumidityPressure
High76 °F (Oct 8, 3:54 pm)100% (Oct 18, 5:54 am)30.34 "Hg (Oct 18, 5:54 am)
Low29 °F (Oct 10, 2:54 am)24% (Oct 7, 4:54 pm)29.38 "Hg (Oct 18, 3:54 am)
Average41 °F77%29.91 "Hg
* Reported Oct 3 9:19 am — Oct 18 9:54 am, Minot. Weather by CustomWeather, © 2019

Note: Actual official high and low records may vary slightly from our data, if they occured in-between our weather recording intervals... More about our weather records

Advertising

Minot Weather History for the Previous 24 Hours

Scroll right to see more
 ConditionsComfort  
Time TempWeatherWind HumidityBarometerVisibility
9:54 am
Fri, Oct 18
47 °FSunny.8 mph71%29.43 "Hg10 mi
8:54 am47 °FSunny.15 mph71%29.43 "Hg10 mi
7:54 am44 °FClear.10 mph85%29.41 "Hg10 mi
6:54 am40 °FClear.9 mph93%29.40 "Hg10 mi
5:54 am37 °FClear.No wind100%29.39 "Hg7 mi
4:54 am37 °FClear.No wind96%29.39 "Hg7 mi
3:54 am38 °FClear.No wind93%29.38 "Hg9 mi
2:54 am40 °FClear.3 mph93%29.38 "Hg10 mi
1:54 am40 °FClear.3 mph93%29.40 "Hg10 mi
12:54 am42 °FClear.3 mph89%29.41 "Hg10 mi
11:54 pm
Thu, Oct 17
44 °FClear.6 mph85%29.43 "Hg10 mi
10:54 pm43 °FClear.6 mph89%29.46 "Hg10 mi
9:54 pm46 °FClear.9 mph79%29.49 "Hg10 mi
8:54 pm47 °FClear.12 mph80%29.53 "Hg10 mi
7:54 pm50 °FClear.10 mph71%29.54 "Hg10 mi
6:54 pm53 °FClear.15 mph66%29.53 "Hg10 mi
5:54 pm56 °FSunny.13 mph62%29.55 "Hg10 mi
4:54 pm60 °FSunny.14 mph52%29.57 "Hg10 mi
3:54 pm62 °FSunny.16 mph48%29.57 "Hg10 mi
2:54 pm65 °FSunny.12 mph42%29.61 "Hg10 mi
1:54 pm62 °FSunny.14 mph46%29.64 "Hg10 mi
12:54 pm59 °FSunny.9 mph56%29.67 "Hg10 mi
11:54 am52 °FSunny.8 mph66%29.70 "Hg10 mi
Weather by CustomWeather, © 2019

See weather overview